Temperature
18 18 18 18 18 18 18 18 17 17 16 16 16 16 16 16 16 15 15 15 15 15 15 15 15 14 14 14 14 14 14 14 14 14 13 14 13 13
18 18 18 18 18 18 18 18 17 17 17 16 16 16 16 16 15 15 15 15 15 15 15 15 15 14 14 14 14 14 14 14 14 13 13 13 13 13
18 18 18 18 18 18 18 17 17 17 17 16 16 16 16 16 16 15 15 15 15 15 15 15 14 14 14 14 14 14 14 13 13 13 13 13 13 12
18 17 17 18 18 18 17 17 17 17 17 16 16 16 16 15 15 15 15 15 15 15 15 15 14 14 14 14 14 14 13 13 13 13 13 12 12 12
17 17 17 17 17 17 17 17 17 16 16 16 16 16 15 15 15 15 15 15 15 15 15 14 14 14 14 14 14 14 13 13 13 13 12 12 12 12
17 17 17 17 17 17 17 17 17 16 16 16 16 16 15 15 15 15 15 15 14 14 14 14 14 14 14 14 14 13 13 13 13 13 12 12 12 12
17 17 17 17 17 17 17 16 16 16 16 16 16 15 15 15 15 15 14 14 14 14 14 14 14 14 14 14 14 13 13 13 13 12 12 12 11 11
17 17 17 17 17 17 16 16 16 16 16 16 15 15 15 15 15 14 14 14 14 14 14 14 14 14 14 14 14 13 13 13 12 12 12 12 11 11
17 16 16 16 16 16 16 16 16 16 16 16 15 15 15 15 15 15 14 14 14 14 14 14 14 13 14 13 13 13 13 13 12 12 12 11 11 11
17 16 16 16 16 16 16 16 16 16 16 15 15 15 15 15 15 14 14 14 14 14 13 13 13 13 13 13 13 13 13 12 12 12 12 11 11 11
16 16 16 16 16 16 16 16 16 16 15 15 15 15 15 15 15 14 14 14 14 14 13 13 13 13 13 13 13 13 12 12 12 12 11 11 11 11
16 16 16 16 16 16 16 16 16 15 15 15 15 15 15 15 14 14 14 13 13 13 13 13 13 12 12 13 12 12 12 12 12 11 11 11 11 11
16 16 16 16 16 16 16 15 15 15 15 15 15 15 15 14 14 14 14 13 13 13 13 13 13 12 12 12 12 12 12 12 11 11 11 11 11 10
16 16 15 16 15 15 15 15 15 15 14 14 14 14 14 14 14 14 14 13 13 13 13 12 12 12 12 12 11 12 12 11 11 11 11 11 10 10
16 15 15 15 15 15 15 15 14 14 14 14 14 14 14 14 13 13 13 13 13 13 12 12 12 12 12 11 11 11 11 11 11 11 11 11 10 10
15 15 15 15 15 15 15 14 14 14 14 13 13 13 13 13 13 13 13 13 13 13 12 12 12 12 11 11 11 11 11 11 11 11 10 10 10 10
15 15 14 14 14 14 14 14 14 14 13 13 13 13 13 13 13 13 12 12 12 12 12 12 12 11 11 11 11 11 11 11 10 10 10 10 10 10
15 14 14 14 14 14 14 14 14 13 13 13 13 12 12 12 12 12 12 12 12 12 12 11 11 11 11 11 11 11 11 10 10 10 10 10 10 10
14 14 14 14 13 13 13 13 13 13 13 13 12 12 12 12 12 12 12 12 12 11 11 11 11 11 10 10 10 10 10 10 10 10 10 9 9 9
14 14 13 13 13 13 13 13 13 13 13 12 12 12 12 12 12 11 11 11 11 11 11 11 11 11 10 10 10 10 10 10 10 10 9 9 9 9
13 13 13 13 13 13 13 13 13 12 12 12 12 12 12 11 11 11 11 11 11 11 11 11 11 11 10 10 10 10 10 10 10 9 9 9 9 9
13 13 13 13 13 13 13 12 12 12 12 12 12 12 11 11 11 11 11 11 10 10 10 10 10 10 10 10 10 10 9 9 9 9 9 9 9 9
13 13 13 13 13 13 12 12 12 12 12 12 12 11 11 11 11 11 10 10 10 10 10 10 10 10 10 10 9 9 9 9 9 9 9 9 9 9
Wind_Speed
0 0 1 1 1 1 1 1 1 1 1 1 1 2 4 5 8 7 6 8 8 8 7 6 5 4 4 3 2 2 1 0 1 1 1 1 2 3
0 0 1 1 1 1 0 0 0 1 1 1 1 2 2 4 6 6 6 8 8 8 8 7 6 6 5 4 3 3 2 2 1 1 1 1 1 3
1 0 0 1 2 2 1 1 1 2 2 1 2 2 2 2 3 4 5 7 7 9 9 9 8 7 7 6 5 4 4 3 3 3 3 3 3 3
1 1 0 0 1 1 1 1 0 1 2 2 2 2 2 2 2 3 3 5 6 9 10 10 10 9 8 7 6 6 5 5 4 4 4 4 4 4
1 1 1 1 1 1 1 0 1 1 2 2 2 1 1 2 2 2 2 2 4 6 9 10 10 10 10 9 9 8 8 7 6 6 6 6 6 5
1 1 0 0 0 0 0 0 0 0 1 2 2 2 1 1 1 2 2 2 2 3 5 7 10 11 10 10 10 9 9 8 8 7 7 7 7 6
2 1 1 2 2 1 0 1 0 1 1 1 1 1 1 1 2 2 2 2 2 2 2 4 6 6 7 10 11 10 10 10 10 9 8 8 8 7
2 1 2 2 2 2 1 1 0 1 2 1 1 1 1 1 2 2 1 2 2 2 2 3 3 4 5 6 9 10 10 10 11 10 10 9 9 8
0 1 1 1 3 2 1 2 2 3 3 2 2 2 2 1 2 3 2 3 3 3 2 3 2 3 4 6 10 11 12 12 11 11 10 10 10 10
1 1 1 0 0 1 1 1 2 2 3 3 3 3 2 1 2 3 4 4 4 3 2 3 3 3 3 5 10 13 14 13 12 12 11 10 11 11
2 1 1 1 0 0 1 2 2 3 3 3 3 3 4 3 2 2 3 3 3 3 2 2 3 3 2 3 7 13 13 13 13 12 11 10 10 10
2 1 2 1 1 1 1 2 3 3 3 2 3 4 5 5 6 4 3 3 3 3 1 1 2 2 2 2 3 5 8 11 13 13 12 11 10 7
2 2 1 3 3 3 3 3 4 4 3 3 3 3 4 4 4 4 4 3 4 3 2 1 3 2 2 2 1 3 5 5 7 9 11 12 12 9
2 1 1 4 4 5 4 4 4 3 3 3 3 3 3 3 3 3 5 5 5 4 3 3 3 3 3 3 3 2 3 4 5 5 6 10 12 13
2 2 0 4 4 4 6 5 3 2 3 3 3 3 3 3 2 2 3 4 5 6 6 6 5 4 4 4 3 2 2 2 3 3 4 5 5 6
3 2 3 5 5 4 2 2 3 3 3 4 3 3 3 2 2 2 3 3 4 4 5 6 6 5 4 5 4 3 3 3 3 3 3 4 5 6
2 2 2 2 3 3 3 2 3 2 3 4 4 3 3 3 2 2 2 3 4 4 4 3 4 4 4 4 4 4 3 3 3 3 3 3 4 5
3 3 3 2 3 3 3 3 3 3 3 3 3 3 3 3 3 3 3 3 4 4 3 3 2 2 3 4 4 4 4 4 3 3 3 4 5 4
3 3 3 3 3 3 3 3 3 2 2 3 3 2 3 3 3 3 3 3 4 4 4 3 2 3 4 5 4 3 3 4 3 3 4 4 4 4
4 4 4 4 3 3 3 3 2 2 1 2 2 2 2 3 3 3 3 3 3 4 4 3 2 3 4 5 4 4 4 4 3 4 4 3 3 4
5 4 4 4 3 3 3 2 2 2 2 2 1 2 2 3 3 3 3 4 4 4 4 4 4 5 3 2 3 3 3 4 4 4 4 3 3 3
5 4 3 3 2 2 2 1 2 1 1 1 1 2 2 3 3 4 4 3 3 4 5 4 3 2 2 3 4 4 4 3 3 5 6 5 3 3
4 3 2 2 2 2 2 2 2 1 1 1 2 2 3 3 3 3 4 4 4 4 5 4 3 3 3 3 3 3 4 3 2 2 2 5 6 7
Wind_Direction
242 204 258 291 287 266 209 192 172 172 176 121 120 131 127 121 143 154 150 165 173 177 182 187 189 188 187 187 192 200 207 244 292 278 281 255 233 223
271 317 317 317 312 305 288 216 144 154 154 128 127 123 128 137 155 167 168 174 179 181 187 192 195 195 194 196 196 196 196 200 210 226 230 229 221 213
262 150 226 351 341 339 347 39 81 118 132 127 108 112 113 97 146 177 169 175 180 192 194 198 200 201 202 204 205 203 205 207 213 220 220 224 224 214
42 17 321 13 27 340 358 39 78 161 145 146 149 151 170 182 187 209 186 198 187 192 197 200 202 205 207 208 211 212 214 216 218 217 219 219 217 210
80 37 11 357 21 22 39 308 240 168 140 152 168 162 184 200 194 230 230 228 212 191 194 203 207 207 209 213 214 216 216 217 218 216 217 219 218 216
105 109 112 32 72 261 194 283 322 241 172 175 171 183 196 200 188 239 244 245 242 194 192 202 204 208 214 213 216 218 218 219 222 222 222 222 221 221
158 141 117 93 81 52 51 47 332 282 242 229 201 190 217 197 237 245 249 257 242 222 198 205 192 197 208 216 221 223 221 221 222 223 222 222 222 223
178 161 160 139 134 125 83 67 147 249 283 276 281 259 258 254 261 264 259 262 261 223 228 245 200 204 201 203 207 211 216 220 222 223 223 223 222 221
168 197 237 165 152 158 187 217 231 244 235 234 268 278 267 272 267 272 276 267 265 251 232 256 235 221 212 206 195 203 210 216 219 221 224 224 222 222
250 234 250 52 281 155 206 211 244 256 243 231 251 271 275 310 256 259 266 265 261 255 226 251 258 247 232 191 197 202 210 216 218 219 222 228 228 227
259 231 146 153 321 111 241 261 266 262 246 241 241 251 264 266 249 271 284 288 283 267 232 239 267 277 243 214 209 209 212 215 218 220 222 225 229 229
246 181 119 96 114 120 258 264 275 283 286 270 250 249 243 240 232 221 244 265 280 277 243 249 274 291 277 243 198 202 219 226 224 224 223 223 221 222
237 214 183 162 176 209 237 256 263 282 274 259 251 239 242 239 221 216 225 245 262 272 283 270 274 272 265 285 259 210 213 219 218 223 222 220 216 212
290 313 189 179 204 220 231 261 278 290 278 273 270 262 254 248 241 234 231 237 247 252 261 265 264 264 268 279 288 244 218 216 210 210 210 213 217 221
311 349 304 204 221 230 235 252 266 272 277 279 280 279 275 269 266 250 243 242 254 263 259 246 248 257 261 268 267 263 258 241 215 219 209 205 207 213
260 266 229 217 236 255 248 231 232 249 264 274 286 289 290 282 274 270 262 258 257 260 258 249 250 249 262 271 264 258 249 243 237 235 225 215 208 215
222 223 225 219 231 233 227 227 232 234 257 272 276 282 288 288 282 282 278 276 271 271 268 260 252 249 251 261 271 270 259 260 242 239 243 243 231 217
205 227 230 236 248 254 253 245 231 235 254 268 271 276 288 294 292 288 280 277 282 283 280 278 270 278 278 273 253 261 264 270 266 247 244 248 244 235
207 239 240 237 241 248 252 257 257 240 239 257 267 281 289 294 292 288 284 287 288 285 278 273 267 267 277 284 286 264 264 273 274 269 257 254 252 247
225 234 245 249 245 250 255 249 257 258 252 261 267 283 288 292 292 293 287 291 292 289 284 283 277 268 264 269 279 291 269 259 266 268 270 261 262 252
234 235 239 247 251 248 251 251 246 240 244 255 258 279 285 286 286 289 288 288 282 285 288 280 269 262 259 253 272 279 274 261 251 256 265 263 265 263
238 242 248 255 259 256 252 252 260 250 249 266 283 278 279 283 288 292 295 293 285 283 284 281 273 268 259 264 271 275 278 283 274 271 263 252 252 247
239 239 247 264 270 260 258 253 259 290 300 297 291 280 278 282 284 285 285 285 289 293 297 297 295 282 268 264 269 281 287 284 287 295 296 286 264 254
Height
1537 1537 1538 1538 1538 1539 1539 1540 1541 1540 1541 1541 1541 1541 1541 1540 1540 1539 1539 1539 1539 1539 1538 1538 1538 1538 1537 1537 1536 1536 1535 1535 1534 1534 1533 1533 1533 1533
1536 1537 1537 1537 1537 1538 1538 1538 1539 1539 1539 1539 1540 1540 1540 1539 1538 1538 1538 1537 1537 1537 1537 1537 1536 1536 1536 1535 1535 1534 1533 1533 1532 1531 1531 1531 1531 1531
1536 1536 1536 1536 1536 1536 1537 1537 1537 1537 1537 1538 1538 1538 1538 1538 1537 1537 1536 1536 1536 1536 1536 1535 1535 1535 1534 1534 1533 1532 1531 1531 1530 1529 1529 1528 1528 1528
1535 1535 1535 1535 1535 1535 1535 1535 1536 1536 1536 1536 1537 1537 1537 1536 1536 1535 1535 1535 1534 1534 1534 1534 1533 1533 1532 1532 1531 1530 1530 1529 1528 1527 1526 1526 1526 1526
1534 1534 1533 1534 1534 1534 1533 1534 1534 1535 1535 1535 1535 1535 1535 1534 1534 1534 1533 1533 1533 1533 1532 1532 1532 1531 1530 1530 1529 1528 1527 1526 1526 1525 1524 1524 1523 1523
1533 1533 1533 1533 1532 1533 1533 1533 1533 1533 1533 1533 1533 1533 1533 1533 1532 1532 1532 1532 1532 1531 1530 1530 1529 1529 1528 1527 1526 1526 1525 1524 1523 1522 1521 1521 1521 1520
1532 1532 1532 1532 1532 1532 1532 1532 1532 1532 1532 1532 1532 1532 1532 1531 1531 1530 1530 1530 1530 1529 1528 1527 1526 1525 1525 1524 1524 1523 1522 1522 1521 1519 1519 1518 1518 1517
1530 1530 1531 1531 1531 1531 1531 1531 1531 1531 1531 1531 1531 1530 1530 1530 1530 1529 1528 1528 1527 1527 1526 1525 1524 1523 1522 1521 1521 1520 1520 1519 1518 1517 1516 1515 1514 1514
1529 1529 1530 1530 1530 1530 1530 1529 1530 1530 1530 1530 1529 1529 1528 1528 1527 1527 1526 1525 1525 1524 1523 1522 1522 1520 1519 1519 1518 1518 1517 1516 1515 1514 1513 1512 1512 1511
1528 1528 1528 1528 1528 1528 1528 1527 1527 1527 1527 1527 1527 1527 1526 1526 1525 1525 1524 1523 1522 1522 1521 1520 1519 1518 1517 1516 1515 1515 1514 1513 1512 1511 1510 1509 1509 1508
1526 1527 1527 1526 1526 1526 1526 1525 1525 1525 1525 1525 1524 1524 1524 1523 1523 1522 1521 1520 1519 1518 1518 1517 1516 1515 1514 1513 1512 1511 1511 1510 1509 1508 1507 1506 1506 1505
1524 1524 1524 1524 1524 1524 1524 1523 1523 1523 1523 1522 1522 1521 1521 1520 1520 1519 1518 1517 1516 1515 1514 1514 1512 1512 1510 1509 1508 1507 1507 1506 1505 1505 1504 1503 1503 1502
1522 1522 1522 1522 1522 1522 1522 1521 1521 1521 1520 1519 1519 1518 1518 1517 1516 1515 1515 1514 1513 1512 1511 1511 1509 1508 1507 1505 1505 1504 1503 1502 1502 1501 1500 1500 1499 1499
1520 1520 1520 1520 1520 1519 1519 1519 1518 1518 1517 1517 1516 1515 1514 1514 1513 1512 1511 1510 1509 1509 1508 1507 1506 1505 1503 1502 1501 1500 1500 1499 1498 1497 1497 1496 1495 1495
1517 1517 1517 1517 1517 1516 1516 1516 1515 1515 1514 1513 1513 1512 1511 1511 1510 1509 1508 1507 1506 1505 1504 1503 1502 1501 1500 1499 1497 1497 1496 1495 1495 1494 1493 1492 1491 1490
1514 1514 1515 1515 1514 1514 1513 1513 1512 1512 1511 1511 1510 1509 1508 1508 1506 1505 1504 1503 1502 1501 1500 1499 1498 1498 1496 1495 1495 1493 1492 1492 1491 1490 1489 1488 1487 1486
1511 1511 1511 1511 1511 1510 1510 1510 1509 1509 1508 1507 1507 1506 1505 1504 1503 1502 1501 1500 1499 1498 1496 1496 1495 1494 1493 1492 1491 1490 1489 1488 1487 1486 1485 1484 1483 1482
1508 1508 1508 1508 1508 1507 1507 1506 1506 1505 1505 1504 1504 1503 1502 1501 1500 1499 1498 1497 1496 1494 1493 1492 1491 1490 1490 1488 1489 1487 1486 1485 1484 1482 1481 1480 1478 1478
1505 1505 1505 1505 1505 1505 1504 1504 1503 1503 1502 1501 1500 1500 1498 1497 1496 1495 1494 1494 1492 1491 1490 1489 1488 1487 1486 1484 1484 1484 1482 1481 1480 1478 1477 1476 1474 1473
1502 1502 1502 1502 1502 1502 1501 1500 1500 1499 1498 1498 1497 1496 1495 1494 1493 1492 1492 1491 1489 1488 1487 1486 1485 1483 1482 1481 1480 1479 1479 1477 1476 1474 1473 1472 1471 1470
1498 1498 1499 1499 1499 1498 1498 1497 1496 1496 1495 1494 1493 1493 1492 1491 1490 1489 1488 1487 1486 1485 1483 1482 1481 1480 1479 1478 1476 1474 1474 1474 1473 1471 1469 1468 1467 1466
1495 1495 1496 1496 1495 1495 1494 1493 1493 1492 1491 1491 1490 1489 1488 1487 1486 1485 1485 1483 1482 1481 1480 1479 1478 1477 1476 1474 1472 1471 1470 1469 1468 1467 1466 1465 1464 1462
1492 1492 1492 1492 1492 1492 1491 1490 1489 1489 1488 1487 1486 1485 1484 1483 1482 1482 1481 1480 1479 1478 1476 1475 1474 1473 1472 1471 1469 1467 1466 1465 1464 1463 1462 1461 1461 1460